Home > Weather > Juneau > Past weeks

Flag for USA Past Weather in Juneau, Alaska, USA — Yesterday and Last 2 Weeks

Now
57 °F

Light rain. Mostly cloudy.


Feels Like: 55 °F
Forecast: 52 / 65 °F
Wind: 8 mph from Southeast

Location: Juneau International Airport

Current Time: Jun 26, 2016 at 6:19:22 PM

Latest Report: Jun 26, 2016 at 5:53 PM


Visibility: 10 mi

Pressure: 30.30 "Hg

Humidity: 74%

Dew Point: 49 °F

Location of JuneauLocation

Past Weather in Juneau — Graph

°F

Juneau Temperature Yesterday

Maximum temperature yesterday: 56 °F (at 12:53 PM)
Minimum temperature yesterday: 53 °F (at 12:53 AM)
Average temperature yesterday: 55 °F

High & Low Weather Summary for the Past Weeks

 TemperatureHumidityPressure
High79 °F (Jun 16, 2:53 PM)100% (Jun 14, 5:53 AM)30.37 "Hg (Jun 14, 5:53 AM)
Low39 °F (Jun 14, 4:53 AM)27% (Jun 15, 1:53 PM)29.75 "Hg (Jun 14, 8:53 PM)
Average58 °F73%30.02 "Hg
* Reported Jun 11 4:53 PM — Jun 26 4:53 PM, Juneau, Weather by CustomWeather, © 2016

Note: Actual official high and low records may vary slightly from our data, if they occured in-between our weather recording intervals... More about our weather records

Advertising

Juneau Weather History for the Previous 24 Hours

Scroll right to see more
 ConditionsComfort  
Time TempWeatherWind HumidityBarometerVisibility
4:53 PM
Sun, Jun 26
59 °FLight rain. Mostly cloudy.15 mph67%30.29 "Hg10 mi
3:53 PM60 °FMostly cloudy.14 mph67%30.29 "Hg10 mi
2:53 PM59 °FMostly cloudy.15 mph69%30.30 "Hg10 mi
1:53 PM60 °FMostly cloudy.16 mph69%30.30 "Hg10 mi
12:53 PM58 °FMostly cloudy.16 mph75%30.30 "Hg10 mi
11:53 AM56 °FCloudy.15 mph81%30.30 "Hg10 mi
10:53 AM55 °FMostly cloudy.8 mph83%30.29 "Hg10 mi
9:53 AM54 °FMostly cloudy.7 mph90%30.28 "Hg10 mi
8:53 AM54 °FMostly cloudy.10 mph86%30.27 "Hg10 mi
7:53 AM53 °FLight rain. Mostly cloudy.9 mph89%30.25 "Hg10 mi
6:53 AM52 °FLight rain. Mostly cloudy.14 mph93%30.23 "Hg10 mi
5:53 AM52 °FLight rain. Mostly cloudy.13 mph89%30.22 "Hg10 mi
4:53 AM52 °FLight rain. Mostly cloudy.13 mph93%30.20 "Hg9 mi
3:53 AM53 °FLight rain. Mostly cloudy.15 mph89%30.17 "Hg9 mi
2:53 AM54 °FLight rain. Mostly cloudy.15 mph90%30.17 "Hg10 mi
1:53 AM54 °FLight rain. Mostly cloudy.12 mph93%30.16 "Hg10 mi
12:53 AM54 °FLight rain. Mostly cloudy.10 mph93%30.16 "Hg10 mi
11:53 PM
Sat, Jun 25
55 °FLight rain. Mostly cloudy.10 mph90%30.14 "Hg10 mi
10:53 PM55 °FCloudy.12 mph90%30.13 "Hg10 mi
9:53 PM55 °FMore clouds than sun.12 mph90%30.12 "Hg10 mi
8:53 PM55 °FLight rain. Mostly cloudy.9 mph90%30.11 "Hg10 mi
7:53 PM55 °FLight rain. Mostly cloudy.12 mph90%30.11 "Hg10 mi
6:53 PM55 °FLight rain. Mostly cloudy.13 mph93%30.11 "Hg10 mi
Weather by CustomWeather, © 2016

See weather overviewHow to use our weather pages